Weather History for KBFM - February, 2014

Change the Weather History Date:

Monday, February 24, 2014

  Actual Average Record
Temperature  
Mean Temperature 63 °F -  
Max Temperature 71 °F 62 °F 78 °F (2012)
Min Temperature 55 °F 45 °F 34 °F (2002)
Degree Days  
Heating Degree Days 2    
Growing Degree Days 13 (Base 50)    
Moisture  
Dew Point 56 °F    
Average Humidity 84    
Maximum Humidity 100    
Minimum Humidity 45    
Precipitation  
Precipitation 0.00 in - - ()
Sea Level Pressure  
Sea Level Pressure 30.08 in    
Wind  
Wind Speed 5 mph (North)    
Max Wind Speed 12 mph    
Max Gust Speed -    
Visibility 6 miles    
Events Fog , Rain    
Averages and records for this station are not official NWS values.
T = Trace of Precipitation, MM = Missing Value Source: NWS Daily Summary

Daily Weather History Graph

Daily Weather History Graph

Search for Another Location

Airport or City:

Trip Planner

Search our weather history database for the weather conditions in past years. The results will help you decide how hot, cold, wet, or windy it might be!

Date:

Astronomy

Feb. 24, 2014 Rise Set
Actual Time 6:23 AM CST 5:47 PM CST
Civil Twilight 5:59 AM CST 6:11 PM CST
Nautical Twilight 5:31 AM CST 6:39 PM CST
Astronomical Twilight 5:03 AM CST 7:07 PM CST
Moon 2:10 AM CST (2/24) 1:00 PM CST (2/24)
Length of Visible Light 12h 11m
Length of Day
11h 23m
Waning Crescent, 28% of the Moon is Illuminated
Feb 24
Waning Crescent
Mar 1
New
Mar 8
First Quarter
Mar 16
Full
Mar 23
Last Quarter

Hourly Weather History & Observations

Time (CST) Temp. Dew Point Humidity Pressure Visibility Wind Dir Wind Speed Gust Speed Precip Events Conditions
12:16 AM 61.0 °F 60.1 °F 97% 30.04 in 0.5 mi SW 3.5 mph - 0.00 in Fog , Rain Light Rain
12:53 AM 61.0 °F 60.1 °F 97% 30.04 in 0.5 mi North 3.5 mph - 0.00 in Fog Fog
1:53 AM 61.0 °F 60.1 °F 97% 30.02 in 0.2 mi North 5.8 mph - N/A Fog Fog
2:03 AM 61.0 °F 60.1 °F 97% 30.02 in 0.5 mi North 5.8 mph - N/A Fog Fog
2:33 AM 61.0 °F 60.1 °F 97% 30.02 in 0.2 mi Calm Calm - N/A Fog Fog
2:53 AM 61.0 °F 61.0 °F 100% 30.03 in 0.2 mi NW 3.5 mph - N/A Fog Fog
3:06 AM 62.1 °F 61.0 °F 96% 30.03 in 0.8 mi NW 4.6 mph - N/A   Mist
3:13 AM 62.1 °F 61.0 °F 96% 30.03 in 1.2 mi WNW 4.6 mph - N/A   Overcast
3:45 AM 62.1 °F 61.0 °F 96% 30.04 in 0.8 mi NW 6.9 mph - N/A   Mist
3:53 AM 62.1 °F 61.0 °F 96% 30.04 in 1.0 mi NNW 8.1 mph - N/A   Mist
4:34 AM 62.1 °F 61.0 °F 96% 30.04 in 2.5 mi North 6.9 mph - N/A   Overcast
4:53 AM 61.0 °F 60.1 °F 97% 30.05 in 9.0 mi North 6.9 mph - N/A   Overcast
5:23 AM 61.0 °F 60.1 °F 97% 30.07 in 9.0 mi North 4.6 mph - N/A   Overcast
5:53 AM 60.1 °F 59.0 °F 96% 30.08 in 9.0 mi North 5.8 mph - N/A   Overcast
6:53 AM 59.0 °F 57.0 °F 93% 30.10 in 3.0 mi North 10.4 mph - N/A   Overcast
7:50 AM 59.0 °F 55.4 °F 88% 30.13 in 8.0 mi North 9.2 mph - N/A   Overcast
7:53 AM 57.9 °F 55.9 °F 93% 30.13 in 8.0 mi North 11.5 mph - N/A   Overcast
8:53 AM 55.0 °F 52.0 °F 89% 30.15 in 9.0 mi North 9.2 mph - N/A   Overcast
9:53 AM 57.0 °F 53.1 °F 87% 30.15 in 10.0 mi North 11.5 mph - N/A   Overcast
10:43 AM 60.1 °F 53.1 °F 78% 30.15 in 10.0 mi NE 9.2 mph - N/A   Scattered Clouds
10:53 AM 61.0 °F 53.1 °F 75% 30.15 in 10.0 mi NE 8.1 mph - N/A   Partly Cloudy
11:53 AM 64.0 °F 53.1 °F 67% 30.12 in 10.0 mi Variable 5.8 mph - N/A   Clear
12:53 PM 68.0 °F 52.0 °F 56% 30.10 in 10.0 mi NNE 9.2 mph - N/A   Clear
1:53 PM 70.0 °F 51.1 °F 51% 30.07 in 10.0 mi NNE 5.8 mph - N/A   Clear
2:53 PM 71.1 °F 50.0 °F 47% 30.06 in 10.0 mi NNE 4.6 mph - N/A   Clear
3:53 PM 71.1 °F 48.9 °F 45% 30.07 in 10.0 mi NE 4.6 mph - N/A   Clear
4:53 PM 68.0 °F 51.1 °F 55% 30.08 in 10.0 mi NNE 6.9 mph - N/A   Clear
5:53 PM 64.9 °F 53.1 °F 65% 30.09 in 10.0 mi NNE 3.5 mph - N/A   Clear
6:53 PM 63.0 °F 53.1 °F 70% 30.08 in 10.0 mi Calm Calm - N/A   Clear
7:53 PM 62.1 °F 55.0 °F 78% 30.10 in 10.0 mi SW 5.8 mph - N/A   Clear
8:53 PM 62.1 °F 57.0 °F 84% 30.12 in 10.0 mi SW 5.8 mph - N/A   Mostly Cloudy
9:53 PM 59.0 °F 55.9 °F 90% 30.11 in 8.0 mi Calm Calm - N/A   Clear
10:53 PM 55.0 °F 53.1 °F 93% 30.09 in 3.0 mi Calm Calm - N/A   Clear
11:53 PM 55.0 °F 54.0 °F 96% 30.08 in 4.0 mi Calm Calm - N/A   Clear